Terug naar catalogus

SL-14 DEB

ActiefPO
NORAD 45289·DEBRIS·🇷🇺 Russia

Gelanceerd Aug 15, 1991 vanaf Plesetsk Cosmodrome

Loading…

Volgende Passages (komende 24 uur)

TLE

VersSource: Space-Track

Epoch: Sep 14, 2026, 04:53 UTC

1 45289U 91056AB  26257.20392690  .00000477  00000-0  18281-2 0  9992
2 45289  82.5413 172.4664 0182167   9.0762 351.3560 12.83104745307673

Volg SL-14 DEB in realtime met AllMySat

Download on the App Store